Date,TemperatureHighF,TemperatureAvgF,TemperatureLowF,DewpointHighF,DewpointAvgF,DewpointLowF,HumidityHigh,HumidityAvg,HumidityLow,PressureMaxIn,PressureMinIn,WindSpeedMaxMPH,WindSpeedAvgMPH,GustSpeedMaxMPH,PrecipitationSumIn
2013-9-1,79,74,68,68,65,62,89,75,59,0.00,40.00,8,3,0,0.00
2013-9-2,73,68,59,68,59,52,90,75,57,0.00,40.00,8,4,0,0.01
2013-9-3,69,61,54,55,52,50,90,75,53,0.00,40.00,6,2,0,0.00
2013-9-4,76,64,52,59,53,50,91,69,40,0.00,40.00,11,4,0,0.00
2013-9-5,74,62,57,58,51,44,91,69,34,0.00,40.00,9,4,0,0.00
2013-9-6,81,66,52,60,51,44,85,60,34,0.00,40.00,6,3,0,0.00
2013-9-7,84,69,63,67,56,-100,88,68,40,0.00,40.00,9,2,0,0.01
2013-9-8,78,70,65,65,62,59,91,75,51,0.00,40.00,10,5,0,0.00
2013-9-9,90,74,63,69,62,53,76,65,48,0.00,40.00,7,6,0,0.00
2013-9-10,93,82,74,69,63,56,75,56,29,0.00,40.00,11,5,0,0.00
2013-9-11,88,80,69,64,63,61,84,58,44,0.00,40.00,10,5,0,0.00
2013-9-12,76,69,62,64,56,47,85,66,36,0.00,40.00,7,3,0,0.00
2013-9-13,61,56,49,46,41,37,82,58,42,0.00,40.00,8,4,0,0.00
2013-9-14,66,51,41,44,38,-100,91,68,34,0.00,40.00,8,2,0,0.00
2013-9-15,56,54,52,53,45,37,90,74,58,0.00,40.00,5,3,0,0.06
2013-9-16,63,57,51,53,48,44,92,75,50,0.00,40.00,6,3,0,0.00
2013-9-17,69,55,45,46,44,41,87,67,38,0.00,40.00,7,5,0,0.00
2013-9-18,71,57,55,57,46,45,71,66,63,0.00,40.00,6,5,0,0.00
2013-9-19,72,68,65,66,63,58,91,84,67,0.00,40.00,9,6,0,0.40
2013-9-20,73,70,65,68,62,54,90,77,67,0.00,40.00,9,7,0,0.03
2013-9-21,63,59,58,54,47,-100,81,67,55,0.00,40.00,9,6,0,0.04
2013-9-22,61,54,46,47,43,39,90,69,44,0.00,40.00,6,3,0,0.00
2013-9-23,67,53,42,45,42,39,90,68,41,0.00,40.00,8,4,0,0.00
2013-9-24,69,58,47,46,42,40,81,59,34,0.00,40.00,7,6,0,0.00
2013-9-25,68,54,46,52,47,43,88,75,57,0.00,40.00,6,4,0,0.00
2013-9-26,73,58,49,51,48,41,91,73,30,0.00,40.00,7,3,0,0.00
2013-9-27,79,64,55,50,44,40,62,51,28,0.00,40.00,9,5,0,0.00
2013-9-28,80,66,55,52,47,-100,82,57,31,0.00,40.00,10,7,0,0.00
2013-9-29,72,62,52,56,52,49,91,69,52,0.00,40.00,8,4,0,0.08
2013-9-30,70,57,46,53,48,44,92,74,40,0.00,40.00,5,2,0,0.00